DAL752 KJFK-KLAX

Flight info

Callsign DAL752
Flight time 6h 25m
Altitude 38000
Route GAYEL Q818 WOZEE LINNG NOSIK TVC KP87I KP87G RWF KD78A BFF/N0484F400 KD63U KD57S CHESZ Q88 HAKMN ANJLL4
Aircraft A359/H-SDE2E3GHIJ3J4J5LM1ORWXY/LB1D1

Departure

Time 2026-05-07 01:49
Airport John F. Kennedy International Airport (KJFK)

Arrival

Time 2026-05-07 08:14
Airport Los Angeles International Airport (KLAX)
Time Latitude Longitude Altitude Speed Heading
2026-05-07 01:16 40.65015 -73.78409 27 ft 0 kts 93°
2026-05-07 01:31 40.65015 -73.78424 26 ft 3 kts 81°
2026-05-07 01:31 40.65010 -73.78450 25 ft 3 kts 59°
2026-05-07 01:32 40.65002 -73.78465 23 ft 3 kts 45°
2026-05-07 01:32 40.64986 -73.78481 25 ft 3 kts 25°
2026-05-07 01:32 40.64978 -73.78486 25 ft 0 kts 18°
2026-05-07 01:38 40.64985 -73.78483 26 ft 6 kts 14°
2026-05-07 01:39 40.65063 -73.78480 26 ft 13 kts
2026-05-07 01:39 40.65099 -73.78470 26 ft 0 kts 16°
2026-05-07 01:41 40.65113 -73.78464 26 ft 7 kts 18°
2026-05-07 01:41 40.65190 -73.78421 27 ft 14 kts 23°
2026-05-07 01:41 40.65250 -73.78358 26 ft 7 kts 83°
2026-05-07 01:42 40.65221 -73.78278 27 ft 17 kts 120°
2026-05-07 01:42 40.65150 -73.78123 26 ft 20 kts 121°
2026-05-07 01:42 40.65077 -73.77960 26 ft 21 kts 121°
2026-05-07 01:42 40.65000 -73.77793 30 ft 22 kts 121°
2026-05-07 01:43 40.64921 -73.77619 26 ft 22 kts 121°
2026-05-07 01:43 40.64841 -73.77443 26 ft 21 kts 121°
2026-05-07 01:43 40.64822 -73.77400 26 ft 0 kts 121°
2026-05-07 01:43 40.64815 -73.77385 26 ft 8 kts 121°
2026-05-07 01:44 40.64782 -73.77314 26 ft 10 kts 121°
2026-05-07 01:44 40.64756 -73.77221 26 ft 11 kts 84°
2026-05-07 01:44 40.64804 -73.77114 27 ft 20 kts 55°
2026-05-07 01:44 40.64901 -73.76931 27 ft 20 kts 54°
2026-05-07 01:45 40.64919 -73.76842 27 ft 8 kts 113°
2026-05-07 01:45 40.64884 -73.76772 28 ft 11 kts 121°
2026-05-07 01:45 40.64900 -73.76685 28 ft 11 kts 34°
2026-05-07 01:45 40.64969 -73.76628 27 ft 13 kts 32°
2026-05-07 01:46 40.65048 -73.76563 27 ft 14 kts 32°
2026-05-07 01:46 40.65098 -73.76478 28 ft 7 kts 93°
2026-05-07 01:46 40.65077 -73.76421 29 ft 7 kts 119°
2026-05-07 01:46 40.65048 -73.76363 28 ft 8 kts 138°
2026-05-07 01:47 40.65011 -73.76367 28 ft 0 kts 209°
2026-05-07 01:48 40.64997 -73.76377 28 ft 16 kts 209°
2026-05-07 01:48 40.64706 -73.76603 27 ft 80 kts 211°
2026-05-07 01:48 40.64067 -73.77102 28 ft 132 kts 210°
2026-05-07 01:48 40.63157 -73.77825 220 ft 161 kts 212°
2026-05-07 01:49 40.62225 -73.78644 806 ft 162 kts 216°
2026-05-07 01:49 40.61341 -73.79599 1379 ft 168 kts 226°
2026-05-07 01:49 40.60494 -73.80717 1922 ft 179 kts 229°
2026-05-07 01:49 40.59546 -73.81880 2369 ft 196 kts 226°
2026-05-07 01:50 40.58437 -73.83120 2698 ft 221 kts 224°
2026-05-07 01:50 40.57161 -73.84388 2737 ft 243 kts 218°
2026-05-07 01:50 40.55647 -73.85579 2904 ft 264 kts 211°
2026-05-07 01:50 40.53971 -73.86487 3637 ft 261 kts 202°
2026-05-07 01:51 40.52145 -73.86676 4459 ft 265 kts 177°
2026-05-07 01:51 40.50410 -73.85767 5113 ft 279 kts 152°
2026-05-07 01:51 40.49047 -73.83878 5653 ft 294 kts 126°
2026-05-07 01:51 40.48352 -73.81318 6191 ft 306 kts 100°
2026-05-07 01:52 40.48468 -73.78547 6671 ft 312 kts 75°
2026-05-07 01:52 40.49381 -73.75968 7169 ft 313 kts 53°
2026-05-07 01:52 40.50697 -73.73667 7692 ft 316 kts 48°
2026-05-07 01:52 40.52086 -73.71404 8237 ft 319 kts 47°
2026-05-07 01:53 40.53491 -73.69124 8747 ft 324 kts 47°
2026-05-07 01:53 40.54916 -73.66801 9262 ft 329 kts 47°
2026-05-07 01:53 40.56355 -73.64445 9811 ft 333 kts 47°
2026-05-07 01:53 40.57815 -73.62050 10231 ft 340 kts 47°
2026-05-07 01:54 40.59330 -73.59578 10461 ft 354 kts 47°
2026-05-07 01:54 40.60907 -73.57021 10690 ft 367 kts 47°
2026-05-07 01:54 40.62589 -73.54431 10903 ft 377 kts 40°
2026-05-07 01:54 40.64734 -73.52427 11099 ft 378 kts 19°
2026-05-07 01:55 40.67215 -73.51275 11313 ft 382 kts
2026-05-07 01:55 40.69814 -73.50384 11612 ft 388 kts
2026-05-07 01:55 40.72449 -73.49515 12005 ft 393 kts
2026-05-07 01:55 40.75086 -73.48648 12432 ft 396 kts
2026-05-07 01:56 40.77766 -73.47769 12865 ft 399 kts
2026-05-07 01:56 40.80405 -73.46903 13290 ft 402 kts
2026-05-07 01:56 40.83215 -73.45980 13720 ft 405 kts
2026-05-07 01:56 40.85907 -73.45098 14088 ft 407 kts
2026-05-07 01:57 40.88676 -73.44184 14497 ft 409 kts
2026-05-07 01:57 40.91430 -73.43269 14899 ft 411 kts
2026-05-07 01:57 40.94214 -73.42337 15313 ft 412 kts
2026-05-07 01:57 40.96999 -73.41402 15707 ft 414 kts
2026-05-07 01:58 40.99791 -73.40460 16112 ft 416 kts
2026-05-07 01:58 41.02617 -73.39505 16513 ft 418 kts
2026-05-07 01:58 41.05441 -73.38550 16864 ft 420 kts
2026-05-07 01:58 41.08243 -73.37603 16983 ft 421 kts
2026-05-07 01:59 41.11077 -73.36644 16989 ft 422 kts
2026-05-07 01:59 41.13935 -73.35767 16990 ft 418 kts
2026-05-07 01:59 41.16807 -73.35552 17130 ft 408 kts 347°
2026-05-07 01:59 41.19524 -73.36320 17571 ft 392 kts 331°
2026-05-07 02:00 41.21846 -73.38047 18004 ft 376 kts 314°
2026-05-07 02:00 41.23591 -73.40548 18337 ft 364 kts 297°
2026-05-07 02:00 41.24665 -73.43528 18733 ft 355 kts 285°
2026-05-07 02:00 41.25383 -73.46642 19185 ft 350 kts 280°
2026-05-07 02:01 41.25932 -73.49785 19622 ft 348 kts 278°
2026-05-07 02:01 41.26413 -73.52929 20059 ft 346 kts 277°
2026-05-07 02:01 41.26884 -73.56056 20479 ft 345 kts 277°
2026-05-07 02:01 41.27375 -73.59181 20896 ft 345 kts 278°
2026-05-07 02:02 41.27888 -73.62285 21322 ft 344 kts 278°
2026-05-07 02:02 41.28421 -73.65387 21749 ft 343 kts 278°
2026-05-07 02:02 41.28965 -73.68476 22136 ft 343 kts 279°
2026-05-07 02:02 41.29512 -73.71564 22507 ft 342 kts 279°
2026-05-07 02:03 41.30059 -73.74647 22859 ft 342 kts 278°
2026-05-07 02:03 41.30605 -73.77726 23222 ft 342 kts 278°
2026-05-07 02:03 41.31143 -73.80753 23594 ft 341 kts 278°
2026-05-07 02:03 41.31687 -73.83833 23864 ft 342 kts 278°
2026-05-07 02:04 41.32229 -73.86916 24118 ft 343 kts 278°
2026-05-07 02:04 41.32772 -73.90017 24379 ft 344 kts 278°
2026-05-07 02:04 41.33316 -73.93130 24614 ft 346 kts 278°
2026-05-07 02:04 41.33861 -73.96249 24869 ft 347 kts 278°
2026-05-07 02:05 41.34406 -73.99374 25168 ft 346 kts 278°
2026-05-07 02:05 41.34950 -74.02496 25445 ft 347 kts 278°
2026-05-07 02:05 41.35493 -74.05623 25683 ft 348 kts 278°
2026-05-07 02:05 41.36039 -74.08772 25911 ft 350 kts 278°
2026-05-07 02:06 41.36587 -74.11935 26180 ft 350 kts 278°
2026-05-07 02:06 41.37135 -74.15098 26470 ft 351 kts 278°
2026-05-07 02:06 41.37680 -74.18257 26740 ft 352 kts 278°
2026-05-07 02:06 41.38227 -74.21443 27004 ft 353 kts 278°
2026-05-07 02:07 41.38777 -74.24642 27286 ft 354 kts 278°
2026-05-07 02:07 41.39868 -74.31009 27854 ft 355 kts 278°
2026-05-07 02:07 41.40525 -74.34181 28127 ft 360 kts 282°
2026-05-07 02:08 41.41464 -74.37316 28412 ft 365 kts 287°
2026-05-07 02:08 41.42607 -74.40364 28697 ft 369 kts 290°
2026-05-07 02:08 41.43861 -74.43371 28980 ft 372 kts 291°
2026-05-07 02:08 41.45168 -74.46353 29249 ft 374 kts 292°
2026-05-07 02:09 41.46502 -74.49348 29558 ft 376 kts 292°
2026-05-07 02:09 41.47825 -74.52325 29847 ft 377 kts 291°
2026-05-07 02:09 41.49166 -74.55370 30096 ft 378 kts 291°
2026-05-07 02:09 41.50494 -74.58405 30337 ft 379 kts 291°
2026-05-07 02:10 41.51814 -74.61448 30590 ft 380 kts 291°
2026-05-07 02:10 41.53138 -74.64515 30878 ft 380 kts 291°
2026-05-07 02:10 41.54460 -74.67583 31126 ft 381 kts 291°
2026-05-07 02:10 41.55773 -74.70639 31421 ft 381 kts 291°
2026-05-07 02:11 41.57092 -74.73712 31699 ft 381 kts 291°
2026-05-07 02:11 41.58414 -74.76797 31944 ft 382 kts 291°
2026-05-07 02:11 41.59716 -74.79835 32208 ft 382 kts 291°
2026-05-07 02:11 41.61040 -74.82913 32577 ft 380 kts 291°
2026-05-07 02:12 41.62354 -74.85977 32975 ft 377 kts 291°
2026-05-07 02:12 41.63651 -74.89008 33371 ft 374 kts 291°
2026-05-07 02:12 41.64937 -74.92020 33760 ft 372 kts 291°
2026-05-07 02:12 41.66211 -74.95009 34089 ft 369 kts 291°
2026-05-07 02:13 41.67480 -74.97994 34319 ft 369 kts 291°
2026-05-07 02:13 41.68752 -75.00993 34526 ft 370 kts 291°
2026-05-07 02:13 41.70020 -75.03983 34768 ft 369 kts 291°
2026-05-07 02:13 41.71287 -75.06969 34985 ft 369 kts 291°
2026-05-07 02:14 41.72554 -75.09962 35199 ft 369 kts 291°
2026-05-07 02:14 41.73819 -75.12946 35460 ft 368 kts 291°
2026-05-07 02:14 41.75065 -75.15888 35700 ft 368 kts 291°
2026-05-07 02:14 41.76333 -75.18884 35928 ft 368 kts 291°
2026-05-07 02:15 41.77596 -75.21872 36158 ft 368 kts 290°
2026-05-07 02:15 41.78857 -75.24858 36381 ft 368 kts 290°
2026-05-07 02:15 41.80118 -75.27849 36616 ft 368 kts 290°
2026-05-07 02:15 41.81372 -75.30827 36835 ft 367 kts 290°
2026-05-07 02:16 41.82630 -75.33817 37061 ft 367 kts 290°
2026-05-07 02:16 41.83886 -75.36806 37269 ft 367 kts 290°
2026-05-07 02:16 41.85140 -75.39791 37478 ft 367 kts 290°
2026-05-07 02:16 41.86376 -75.42736 37687 ft 367 kts 290°
2026-05-07 02:17 41.87628 -75.45724 37875 ft 367 kts 290°
2026-05-07 02:17 41.88883 -75.48726 37929 ft 371 kts 290°
2026-05-07 02:17 41.91415 -75.54788 37911 ft 372 kts 290°
2026-05-07 02:18 41.93949 -75.60855 37920 ft 373 kts 290°
2026-05-07 02:18 41.96487 -75.66936 37932 ft 373 kts 290°
2026-05-07 02:19 41.99010 -75.73018 37930 ft 374 kts 290°
2026-05-07 02:19 42.01132 -75.78141 37930 ft 375 kts 290°
2026-05-07 02:20 42.03669 -75.84271 37936 ft 376 kts 290°
2026-05-07 02:20 42.06213 -75.90430 37935 ft 377 kts 290°
2026-05-07 02:21 42.08742 -75.96566 37937 ft 378 kts 290°
2026-05-07 02:21 42.11294 -76.02769 37934 ft 379 kts 290°
2026-05-07 02:22 42.13849 -76.08994 37938 ft 380 kts 290°
2026-05-07 02:22 42.16267 -76.15317 37938 ft 378 kts 286°
2026-05-07 02:23 42.18399 -76.21787 37938 ft 378 kts 285°
2026-05-07 02:23 42.20481 -76.28295 37943 ft 379 kts 285°
2026-05-07 02:24 42.22565 -76.34840 37931 ft 380 kts 285°
2026-05-07 02:24 42.24657 -76.41404 37948 ft 381 kts 285°
2026-05-07 02:25 42.26740 -76.47941 37952 ft 382 kts 285°
2026-05-07 02:25 42.28836 -76.54536 37953 ft 383 kts 285°
2026-05-07 02:26 42.30937 -76.61162 37954 ft 384 kts 285°
2026-05-07 02:26 42.33038 -76.67801 37949 ft 384 kts 285°
2026-05-07 02:27 42.35139 -76.74463 37952 ft 385 kts 285°
2026-05-07 02:27 42.37239 -76.81137 37945 ft 385 kts 285°
2026-05-07 02:28 42.39321 -76.87772 37945 ft 386 kts 285°
2026-05-07 02:28 42.41416 -76.94464 37960 ft 386 kts 285°
2026-05-07 02:29 42.43511 -77.01171 37964 ft 387 kts 285°
2026-05-07 02:29 42.45605 -77.07890 37959 ft 388 kts 285°
2026-05-07 02:30 42.47696 -77.14629 37962 ft 388 kts 285°
2026-05-07 02:30 42.49792 -77.21396 37964 ft 389 kts 285°
2026-05-07 02:31 42.51871 -77.28125 37962 ft 390 kts 285°
2026-05-07 02:31 42.53961 -77.34911 37968 ft 390 kts 285°
2026-05-07 02:32 42.56054 -77.41722 37974 ft 390 kts 285°
2026-05-07 02:32 42.58143 -77.48534 37985 ft 391 kts 285°
2026-05-07 02:33 42.60221 -77.55330 37975 ft 392 kts 285°
2026-05-07 02:33 42.62308 -77.62175 37976 ft 392 kts 285°
2026-05-07 02:34 42.64393 -77.69032 37982 ft 393 kts 285°
2026-05-07 02:34 42.66481 -77.75923 37984 ft 394 kts 285°
2026-05-07 02:35 42.68450 -77.82853 37983 ft 393 kts 284°
2026-05-07 02:35 42.70362 -77.89824 37984 ft 394 kts 284°
2026-05-07 02:36 42.72284 -77.96805 37986 ft 394 kts 284°
2026-05-07 02:36 42.74225 -78.03809 37991 ft 395 kts 284°
2026-05-07 02:37 42.76153 -78.10763 37994 ft 396 kts 284°
2026-05-07 02:37 42.78093 -78.17783 37995 ft 396 kts 284°
2026-05-07 02:38 42.80033 -78.24827 37994 ft 397 kts 284°
2026-05-07 02:38 42.81968 -78.31874 37987 ft 398 kts 284°
2026-05-07 02:39 42.83905 -78.38951 37995 ft 398 kts 284°
2026-05-07 02:39 42.85828 -78.45994 37991 ft 399 kts 284°
2026-05-07 02:40 42.87765 -78.53109 37990 ft 400 kts 284°
2026-05-07 02:40 42.89698 -78.60228 37991 ft 401 kts 284°
2026-05-07 02:41 42.91630 -78.67367 37992 ft 402 kts 284°
2026-05-07 02:41 42.93991 -78.74352 37994 ft 412 kts 293°
2026-05-07 02:42 42.97438 -78.80753 37993 ft 422 kts 300°
2026-05-07 02:42 43.01194 -78.86958 37978 ft 425 kts 301°
2026-05-07 02:43 43.04993 -78.93161 37989 ft 426 kts 300°
2026-05-07 02:43 43.08777 -78.99410 37996 ft 427 kts 300°
2026-05-07 02:44 43.12548 -79.05695 37994 ft 427 kts 300°
2026-05-07 02:44 43.16300 -79.11972 37993 ft 429 kts 300°
2026-05-07 02:45 43.20081 -79.18311 37993 ft 430 kts 300°
2026-05-07 02:45 43.23864 -79.24667 37995 ft 431 kts 300°
2026-05-07 02:46 43.27657 -79.31060 37994 ft 431 kts 300°
2026-05-07 02:46 43.30772 -79.37932 37997 ft 418 kts 288°
2026-05-07 02:47 43.32861 -79.45295 37997 ft 415 kts 283°
2026-05-07 02:47 43.34737 -79.52797 37990 ft 416 kts 283°
2026-05-07 02:48 43.36593 -79.60334 37999 ft 416 kts 283°
2026-05-07 02:48 43.38471 -79.67873 37995 ft 417 kts 283°
2026-05-07 02:49 43.40347 -79.75366 37994 ft 417 kts 283°
2026-05-07 02:49 43.42236 -79.82917 37994 ft 417 kts 283°
2026-05-07 02:50 43.44121 -79.90480 37995 ft 418 kts 283°
2026-05-07 02:50 43.46000 -79.98047 37995 ft 418 kts 283°
2026-05-07 02:51 43.47872 -80.05611 37987 ft 418 kts 283°
2026-05-07 02:51 43.49742 -80.13192 37981 ft 417 kts 283°
2026-05-07 02:52 43.51591 -80.20716 37976 ft 417 kts 283°
2026-05-07 02:52 43.53450 -80.28303 37975 ft 417 kts 283°
2026-05-07 02:53 43.55302 -80.35888 37974 ft 417 kts 283°
2026-05-07 02:53 43.57153 -80.43496 37976 ft 417 kts 283°
2026-05-07 02:54 43.58994 -80.51085 37981 ft 418 kts 283°
2026-05-07 02:54 43.60836 -80.58701 37986 ft 418 kts 283°
2026-05-07 02:55 43.62670 -80.66316 37989 ft 418 kts 283°
2026-05-07 02:55 43.64487 -80.73883 37993 ft 418 kts 283°
2026-05-07 02:56 43.66315 -80.81520 37996 ft 419 kts 282°
2026-05-07 02:56 43.68140 -80.89174 37993 ft 419 kts 282°
2026-05-07 02:57 43.69951 -80.96793 37993 ft 420 kts 282°
2026-05-07 02:57 43.71769 -81.04466 37994 ft 420 kts 282°
2026-05-07 02:58 43.73583 -81.12148 37997 ft 421 kts 282°
2026-05-07 02:58 43.75394 -81.19846 37992 ft 421 kts 282°
2026-05-07 02:59 43.77204 -81.27568 37993 ft 422 kts 282°
2026-05-07 02:59 43.79012 -81.35307 37996 ft 423 kts 282°
2026-05-07 03:00 43.80822 -81.43082 37997 ft 424 kts 282°
2026-05-07 03:00 43.82629 -81.50868 37993 ft 425 kts 282°
2026-05-07 03:01 43.84435 -81.58693 38001 ft 432 kts 282°
2026-05-07 03:01 43.86278 -81.66703 37989 ft 438 kts 282°
2026-05-07 03:02 43.88133 -81.74780 37994 ft 442 kts 282°
2026-05-07 03:02 43.89996 -81.82920 38006 ft 443 kts 282°
2026-05-07 03:03 43.91858 -81.91085 38000 ft 444 kts 282°
2026-05-07 03:03 43.93716 -81.99269 38006 ft 444 kts 282°
2026-05-07 03:04 43.95557 -82.07411 38020 ft 445 kts 282°
2026-05-07 03:04 43.97405 -82.15618 38009 ft 445 kts 282°
2026-05-07 03:05 43.99248 -82.23841 38007 ft 446 kts 282°
2026-05-07 03:05 44.01063 -82.32072 38007 ft 446 kts 282°
2026-05-07 03:06 44.02873 -82.40342 38006 ft 447 kts 282°
2026-05-07 03:06 44.04667 -82.48555 38004 ft 447 kts 282°
2026-05-07 03:07 44.06471 -82.56835 38005 ft 447 kts 282°
2026-05-07 03:07 44.07969 -82.63732 38004 ft 448 kts 282°
2026-05-07 03:08 44.09763 -82.72021 38002 ft 448 kts 282°
2026-05-07 03:08 44.11555 -82.80335 38001 ft 448 kts 282°
2026-05-07 03:09 44.13344 -82.88669 37998 ft 449 kts 282°
2026-05-07 03:09 44.15124 -82.96999 38003 ft 449 kts 282°
2026-05-07 03:10 44.16904 -83.05357 37991 ft 450 kts 282°
2026-05-07 03:10 44.18678 -83.13718 37995 ft 450 kts 282°
2026-05-07 03:11 44.20449 -83.22105 37996 ft 451 kts 282°
2026-05-07 03:11 44.22206 -83.30455 38000 ft 451 kts 282°
2026-05-07 03:12 44.23970 -83.38874 38005 ft 452 kts 282°
2026-05-07 03:12 44.25726 -83.47286 38003 ft 452 kts 282°
2026-05-07 03:13 44.27478 -83.55719 38002 ft 452 kts 282°
2026-05-07 03:13 44.29224 -83.64154 37998 ft 453 kts 282°
2026-05-07 03:14 44.30957 -83.72564 37995 ft 453 kts 282°
2026-05-07 03:15 44.33560 -83.85258 37992 ft 453 kts 282°
2026-05-07 03:15 44.35288 -83.93732 37989 ft 454 kts 282°
2026-05-07 03:16 44.37012 -84.02224 37992 ft 454 kts 282°
2026-05-07 03:16 44.38731 -84.10723 37993 ft 454 kts 282°
2026-05-07 03:17 44.40448 -84.19248 37996 ft 455 kts 282°
2026-05-07 03:17 44.42159 -84.27781 38000 ft 455 kts 282°
2026-05-07 03:18 44.43852 -84.36263 37998 ft 456 kts 282°
2026-05-07 03:18 44.45553 -84.44824 38001 ft 456 kts 282°
2026-05-07 03:19 44.47248 -84.53384 37999 ft 457 kts 282°
2026-05-07 03:19 44.48940 -84.61971 38001 ft 457 kts 282°
2026-05-07 03:20 44.50626 -84.70565 37998 ft 457 kts 282°
2026-05-07 03:20 44.52304 -84.79155 37987 ft 458 kts 282°
2026-05-07 03:21 44.53978 -84.87766 37991 ft 458 kts 282°
2026-05-07 03:21 44.55651 -84.96406 37992 ft 458 kts 282°
2026-05-07 03:22 44.57313 -85.05028 37994 ft 458 kts 282°
2026-05-07 03:22 44.58972 -85.13672 37999 ft 459 kts 282°
2026-05-07 03:23 44.60615 -85.22276 38009 ft 459 kts 282°
2026-05-07 03:23 44.62259 -85.30924 38003 ft 459 kts 282°
2026-05-07 03:24 44.63901 -85.39592 38009 ft 459 kts 282°
2026-05-07 03:24 44.65536 -85.48271 38010 ft 460 kts 282°
2026-05-07 03:25 44.66697 -85.57063 38014 ft 457 kts 272°
2026-05-07 03:25 44.66886 -85.65987 38000 ft 457 kts 269°
2026-05-07 03:26 44.66873 -85.74854 38003 ft 457 kts 269°
2026-05-07 03:26 44.66836 -85.83799 38001 ft 457 kts 269°
2026-05-07 03:27 44.66814 -85.92738 38017 ft 458 kts 269°
2026-05-07 03:27 44.66799 -86.01675 38009 ft 458 kts 269°
2026-05-07 03:28 44.66780 -86.10629 38012 ft 458 kts 269°
2026-05-07 03:28 44.66753 -86.19589 38014 ft 458 kts 269°
2026-05-07 03:29 44.66719 -86.28550 37998 ft 459 kts 269°
2026-05-07 03:29 44.66677 -86.37516 38006 ft 459 kts 269°
2026-05-07 03:30 44.66629 -86.46421 38002 ft 459 kts 269°
2026-05-07 03:30 44.66573 -86.55391 38003 ft 459 kts 269°
2026-05-07 03:31 44.66510 -86.64361 38001 ft 459 kts 269°
2026-05-07 03:31 44.66440 -86.73346 38003 ft 459 kts 269°
2026-05-07 03:32 44.66364 -86.82304 38006 ft 459 kts 269°
2026-05-07 03:32 44.66280 -86.91298 38010 ft 459 kts 268°
2026-05-07 03:33 44.66189 -87.00214 38013 ft 459 kts 268°
2026-05-07 03:33 44.66091 -87.09201 38016 ft 459 kts 268°
2026-05-07 03:34 44.65986 -87.18169 38020 ft 460 kts 268°
2026-05-07 03:34 44.65874 -87.27151 38020 ft 460 kts 268°
2026-05-07 03:35 44.65755 -87.36134 38024 ft 460 kts 268°
2026-05-07 03:35 44.65629 -87.45121 38023 ft 460 kts 268°
2026-05-07 03:36 44.65496 -87.54112 38023 ft 460 kts 268°
2026-05-07 03:36 44.65355 -87.63097 38022 ft 460 kts 268°
2026-05-07 03:37 44.65208 -87.72090 38018 ft 461 kts 268°
2026-05-07 03:37 44.65053 -87.81091 38016 ft 461 kts 268°
2026-05-07 03:38 44.64891 -87.90095 38017 ft 461 kts 268°
2026-05-07 03:38 44.64724 -87.99036 38022 ft 461 kts 268°
2026-05-07 03:39 44.64548 -88.08050 38027 ft 462 kts 268°
2026-05-07 03:39 44.64364 -88.17079 38025 ft 462 kts 268°
2026-05-07 03:40 44.64173 -88.26112 38024 ft 462 kts 268°
2026-05-07 03:40 44.63976 -88.35138 38027 ft 463 kts 268°
2026-05-07 03:41 44.63770 -88.44180 38030 ft 463 kts 268°
2026-05-07 03:41 44.63560 -88.53155 38042 ft 463 kts 268°
2026-05-07 03:42 44.63340 -88.62208 38046 ft 463 kts 268°
2026-05-07 03:42 44.63113 -88.71273 38046 ft 464 kts 268°
2026-05-07 03:43 44.62878 -88.80328 38047 ft 464 kts 268°
2026-05-07 03:43 44.62637 -88.89382 38043 ft 464 kts 268°
2026-05-07 03:44 44.62388 -88.98447 38049 ft 464 kts 267°
2026-05-07 03:44 44.62134 -89.07449 38046 ft 465 kts 267°
2026-05-07 03:45 44.61871 -89.16515 38045 ft 465 kts 267°
2026-05-07 03:45 44.61601 -89.25587 38049 ft 465 kts 267°
2026-05-07 03:46 44.61323 -89.34656 38046 ft 465 kts 267°
2026-05-07 03:46 44.61038 -89.43724 38045 ft 465 kts 267°
2026-05-07 03:47 44.60746 -89.52814 38043 ft 465 kts 267°
2026-05-07 03:47 44.60446 -89.61883 38045 ft 466 kts 267°
2026-05-07 03:48 44.60139 -89.70965 38046 ft 466 kts 267°
2026-05-07 03:48 44.59827 -89.79991 38050 ft 466 kts 267°
2026-05-07 03:49 44.59506 -89.89081 38054 ft 466 kts 267°
2026-05-07 03:49 44.59177 -89.98164 38047 ft 466 kts 267°
2026-05-07 03:50 44.58841 -90.07251 38046 ft 466 kts 267°
2026-05-07 03:50 44.58497 -90.16348 38047 ft 467 kts 267°
2026-05-07 03:51 44.58146 -90.25450 38045 ft 467 kts 267°
2026-05-07 03:51 44.57790 -90.34498 38050 ft 467 kts 266°
2026-05-07 03:52 44.57424 -90.43611 38056 ft 467 kts 266°
2026-05-07 03:52 44.57051 -90.52725 38059 ft 467 kts 266°
2026-05-07 03:53 44.56735 -90.60295 38062 ft 468 kts 266°
2026-05-07 03:53 44.56349 -90.69402 38067 ft 468 kts 266°
2026-05-07 03:54 44.55890 -90.79986 38072 ft 468 kts 266°
2026-05-07 03:54 44.55554 -90.87619 38071 ft 468 kts 266°
2026-05-07 03:55 44.55146 -90.96725 38072 ft 468 kts 266°
2026-05-07 03:55 44.54730 -91.05825 38074 ft 468 kts 266°
2026-05-07 03:56 44.54306 -91.14954 38078 ft 469 kts 266°
2026-05-07 03:56 44.53876 -91.24068 38076 ft 469 kts 266°
2026-05-07 03:57 44.53441 -91.33125 38080 ft 469 kts 266°
2026-05-07 03:57 44.52994 -91.42263 38071 ft 470 kts 266°
2026-05-07 03:58 44.52541 -91.51384 38083 ft 470 kts 266°
2026-05-07 03:58 44.52079 -91.60545 38072 ft 471 kts 266°
2026-05-07 03:59 44.51613 -91.69641 38076 ft 471 kts 266°
2026-05-07 03:59 44.51135 -91.78813 38074 ft 471 kts 266°
2026-05-07 04:00 44.50650 -91.87978 38076 ft 472 kts 266°
2026-05-07 04:00 44.50160 -91.97145 38068 ft 472 kts 266°
2026-05-07 04:01 44.50049 -92.06344 38074 ft 472 kts 270°
2026-05-07 04:01 44.50106 -92.15553 38060 ft 472 kts 270°
2026-05-07 04:02 44.50184 -92.24760 38062 ft 473 kts 270°
2026-05-07 04:02 44.50250 -92.33920 38044 ft 473 kts 270°
2026-05-07 04:03 44.50302 -92.43137 38041 ft 473 kts 270°
2026-05-07 04:03 44.50344 -92.52351 38055 ft 473 kts 270°
2026-05-07 04:04 44.50379 -92.61579 38056 ft 473 kts 270°
2026-05-07 04:04 44.50405 -92.70798 38050 ft 473 kts 270°
2026-05-07 04:05 44.50424 -92.80019 38062 ft 473 kts 270°
2026-05-07 04:05 44.50436 -92.89185 38062 ft 473 kts 270°
2026-05-07 04:06 44.50441 -92.98404 38045 ft 473 kts 270°
2026-05-07 04:06 44.50439 -93.07626 38054 ft 473 kts 270°
2026-05-07 04:07 44.50429 -93.16841 38058 ft 473 kts 270°
2026-05-07 04:07 44.50412 -93.26005 38053 ft 473 kts 270°
2026-05-07 04:08 44.50387 -93.35211 38064 ft 473 kts 270°
2026-05-07 04:08 44.50355 -93.44396 38070 ft 473 kts 270°
2026-05-07 04:09 44.50316 -93.53618 38072 ft 472 kts 270°
2026-05-07 04:09 44.50269 -93.62847 38070 ft 472 kts 270°
2026-05-07 04:10 44.50214 -93.72048 38078 ft 472 kts 270°
2026-05-07 04:10 44.50153 -93.81196 38068 ft 472 kts 270°
2026-05-07 04:11 44.50084 -93.90455 38071 ft 472 kts 270°
2026-05-07 04:11 44.50009 -93.99600 38067 ft 472 kts 270°
2026-05-07 04:12 44.49853 -94.08799 38074 ft 472 kts 268°
2026-05-07 04:12 44.49590 -94.18007 38071 ft 472 kts 268°
2026-05-07 04:13 44.49324 -94.27183 38066 ft 472 kts 268°
2026-05-07 04:13 44.49069 -94.36373 38061 ft 472 kts 268°
2026-05-07 04:14 44.48817 -94.45495 38059 ft 472 kts 268°
2026-05-07 04:14 44.48557 -94.54679 38062 ft 471 kts 268°
2026-05-07 04:15 44.48289 -94.63851 38055 ft 471 kts 268°
2026-05-07 04:15 44.48014 -94.73029 38058 ft 471 kts 268°
2026-05-07 04:16 44.47730 -94.82202 38053 ft 471 kts 268°
2026-05-07 04:16 44.47441 -94.91354 38046 ft 471 kts 268°
2026-05-07 04:17 44.47145 -95.00472 38045 ft 471 kts 268°
2026-05-07 04:17 44.46764 -95.09634 38041 ft 471 kts 264°
2026-05-07 04:18 44.45182 -95.18553 38047 ft 474 kts 253°
2026-05-07 04:18 44.42887 -95.27226 38048 ft 475 kts 251°
2026-05-07 04:19 44.40465 -95.35828 38043 ft 475 kts 251°
2026-05-07 04:19 44.38050 -95.44433 38043 ft 475 kts 251°
2026-05-07 04:20 44.35660 -95.53021 38037 ft 474 kts 251°
2026-05-07 04:20 44.33272 -95.61613 38035 ft 474 kts 251°
2026-05-07 04:21 44.29700 -95.74419 38036 ft 474 kts 251°
2026-05-07 04:21 44.27298 -95.82985 38039 ft 473 kts 251°
2026-05-07 04:22 44.24896 -95.91521 38048 ft 473 kts 251°
2026-05-07 04:22 44.22487 -96.00052 38054 ft 472 kts 251°
2026-05-07 04:23 44.20080 -96.08546 38057 ft 472 kts 251°
2026-05-07 04:23 44.17659 -96.17061 38048 ft 472 kts 251°
2026-05-07 04:24 44.15238 -96.25548 38040 ft 471 kts 251°
2026-05-07 04:24 44.12813 -96.34018 38035 ft 471 kts 251°
2026-05-07 04:25 44.10380 -96.42489 38035 ft 471 kts 251°
2026-05-07 04:25 44.07960 -96.50884 38041 ft 470 kts 251°
2026-05-07 04:26 44.05517 -96.59331 38047 ft 470 kts 251°
2026-05-07 04:26 44.03072 -96.67759 38053 ft 470 kts 251°
2026-05-07 04:27 44.00616 -96.76194 38038 ft 470 kts 251°
2026-05-07 04:27 43.98176 -96.84550 38022 ft 470 kts 251°
2026-05-07 04:28 43.95712 -96.92956 38011 ft 470 kts 251°
2026-05-07 04:28 43.93242 -97.01354 38002 ft 469 kts 251°
2026-05-07 04:29 43.90770 -97.09733 38005 ft 469 kts 251°
2026-05-07 04:29 43.88290 -97.18110 38015 ft 469 kts 250°
2026-05-07 04:30 43.85805 -97.26479 38022 ft 469 kts 250°
2026-05-07 04:30 43.83316 -97.34832 38027 ft 468 kts 250°
2026-05-07 04:31 43.80842 -97.43109 38031 ft 468 kts 250°
2026-05-07 04:31 43.78343 -97.51441 38025 ft 468 kts 250°
2026-05-07 04:32 43.75840 -97.59757 37990 ft 468 kts 251°
2026-05-07 04:32 43.73302 -97.68106 38017 ft 474 kts 251°
2026-05-07 04:33 43.70737 -97.76563 38011 ft 479 kts 251°
2026-05-07 04:33 43.68179 -97.85010 38014 ft 480 kts 251°
2026-05-07 04:34 43.65590 -97.93520 38001 ft 479 kts 251°
2026-05-07 04:34 43.62994 -98.02010 38017 ft 479 kts 251°
2026-05-07 04:35 43.60395 -98.10485 38008 ft 479 kts 251°
2026-05-07 04:35 43.57809 -98.18893 38011 ft 479 kts 251°
2026-05-07 04:36 43.55197 -98.27353 38012 ft 479 kts 251°
2026-05-07 04:36 43.52577 -98.35812 38012 ft 480 kts 251°
2026-05-07 04:37 43.49949 -98.44269 38015 ft 480 kts 251°
2026-05-07 04:37 43.47312 -98.52725 38013 ft 480 kts 251°
2026-05-07 04:38 43.44665 -98.61176 38012 ft 480 kts 251°
2026-05-07 04:38 43.42460 -98.68183 38008 ft 480 kts 251°
2026-05-07 04:39 43.39793 -98.76615 38010 ft 481 kts 251°
2026-05-07 04:39 43.36692 -98.86416 38012 ft 481 kts 251°
2026-05-07 04:40 43.34475 -98.93428 38011 ft 481 kts 251°
2026-05-07 04:40 43.31805 -99.01854 38012 ft 481 kts 251°
2026-05-07 04:41 43.29122 -99.10281 38009 ft 482 kts 251°
2026-05-07 04:41 43.26429 -99.18703 38009 ft 482 kts 251°
2026-05-07 04:42 43.23728 -99.27125 38009 ft 482 kts 251°
2026-05-07 04:42 43.21016 -99.35545 38008 ft 483 kts 251°
2026-05-07 04:43 43.18299 -99.43963 38011 ft 483 kts 251°
2026-05-07 04:43 43.15592 -99.52329 38007 ft 483 kts 251°
2026-05-07 04:44 43.12858 -99.60745 38007 ft 484 kts 251°
2026-05-07 04:44 43.10117 -99.69158 38001 ft 484 kts 251°
2026-05-07 04:45 43.07360 -99.77595 38001 ft 485 kts 251°
2026-05-07 04:45 43.04596 -99.86017 38004 ft 485 kts 251°
2026-05-07 04:46 43.01826 -99.94438 38007 ft 485 kts 251°
2026-05-07 04:46 42.99068 -100.02839 38007 ft 485 kts 251°
2026-05-07 04:47 42.96508 -100.11288 38005 ft 484 kts 253°
2026-05-07 04:47 42.94022 -100.19815 38005 ft 484 kts 253°
2026-05-07 04:48 42.91519 -100.28334 37999 ft 484 kts 253°
2026-05-07 04:48 42.88976 -100.36844 37997 ft 484 kts 252°
2026-05-07 04:49 42.86407 -100.45349 37989 ft 485 kts 252°
2026-05-07 04:49 42.83834 -100.53839 37985 ft 485 kts 252°
2026-05-07 04:50 42.81252 -100.62327 38001 ft 485 kts 252°
2026-05-07 04:50 42.78681 -100.70755 37990 ft 485 kts 252°
2026-05-07 04:51 42.76083 -100.79254 37990 ft 485 kts 252°
2026-05-07 04:51 42.73482 -100.87739 37988 ft 486 kts 252°
2026-05-07 04:52 42.70869 -100.96221 37998 ft 486 kts 252°
2026-05-07 04:52 42.68248 -101.04692 37988 ft 487 kts 252°
2026-05-07 04:53 42.65622 -101.13171 37994 ft 487 kts 252°
2026-05-07 04:53 42.62981 -101.21677 37994 ft 488 kts 252°
2026-05-07 04:54 42.60351 -101.30109 37995 ft 489 kts 252°
2026-05-07 04:54 42.59039 -101.34341 38172 ft 481 kts 249°
2026-05-07 04:54 42.57757 -101.38468 38000 ft 469 kts 249°
2026-05-07 04:55 42.55222 -101.46542 37996 ft 464 kts 249°
2026-05-07 04:55 42.52687 -101.54585 37991 ft 464 kts 249°
2026-05-07 04:56 42.50147 -101.62627 37991 ft 464 kts 249°
2026-05-07 04:56 42.47600 -101.70671 37991 ft 464 kts 249°
2026-05-07 04:57 42.45050 -101.78703 37995 ft 464 kts 249°
2026-05-07 04:57 42.42507 -101.86691 37992 ft 465 kts 249°
2026-05-07 04:58 42.39938 -101.94732 37994 ft 465 kts 249°
2026-05-07 04:58 42.37366 -102.02759 37994 ft 465 kts 249°
2026-05-07 04:59 42.34784 -102.10789 38000 ft 465 kts 249°
2026-05-07 04:59 42.32199 -102.18810 37999 ft 465 kts 248°
2026-05-07 05:00 42.29607 -102.26828 38000 ft 466 kts 248°
2026-05-07 05:00 42.27007 -102.34848 37999 ft 466 kts 248°
2026-05-07 05:01 42.24419 -102.42804 38003 ft 466 kts 248°
2026-05-07 05:01 42.21810 -102.50802 38003 ft 466 kts 248°
2026-05-07 05:02 42.19190 -102.58812 37998 ft 466 kts 248°
2026-05-07 05:02 42.16567 -102.66806 37999 ft 466 kts 248°
2026-05-07 05:03 42.13941 -102.74784 37988 ft 466 kts 248°
2026-05-07 05:03 42.11311 -102.82761 37985 ft 466 kts 248°
2026-05-07 05:04 42.08690 -102.90676 37988 ft 466 kts 248°
2026-05-07 05:04 42.06042 -102.98650 37994 ft 466 kts 248°
2026-05-07 05:05 42.03390 -103.06613 37988 ft 466 kts 248°
2026-05-07 05:05 42.00729 -103.14582 38001 ft 467 kts 248°
2026-05-07 05:06 41.98062 -103.22544 38005 ft 467 kts 248°
2026-05-07 05:06 41.95386 -103.30512 38010 ft 467 kts 248°
2026-05-07 05:07 41.92727 -103.38406 38007 ft 467 kts 248°
2026-05-07 05:07 41.90005 -103.46329 38018 ft 468 kts 245°
2026-05-07 05:08 41.86517 -103.53737 38013 ft 471 kts 238°
2026-05-07 05:08 41.82727 -103.60900 38012 ft 471 kts 237°
2026-05-07 05:09 41.78878 -103.68024 38010 ft 471 kts 237°
2026-05-07 05:09 41.75035 -103.75153 38023 ft 471 kts 238°
2026-05-07 05:10 41.71211 -103.82271 38027 ft 471 kts 238°
2026-05-07 05:10 41.67388 -103.89382 38051 ft 471 kts 238°
2026-05-07 05:11 41.63583 -103.96443 38063 ft 471 kts 238°
2026-05-07 05:11 41.59748 -104.03541 38083 ft 471 kts 238°
2026-05-07 05:12 41.55906 -104.10635 38075 ft 471 kts 238°
2026-05-07 05:12 41.52060 -104.17720 38071 ft 471 kts 238°
2026-05-07 05:13 41.48210 -104.24795 38063 ft 471 kts 238°
2026-05-07 05:13 41.44349 -104.31874 38078 ft 472 kts 238°
2026-05-07 05:14 41.40484 -104.38945 38075 ft 472 kts 238°
2026-05-07 05:14 41.36609 -104.46018 38092 ft 473 kts 237°
2026-05-07 05:15 41.32749 -104.53048 38084 ft 473 kts 237°
2026-05-07 05:15 41.28852 -104.60126 38089 ft 474 kts 237°
2026-05-07 05:16 41.24950 -104.67199 38077 ft 475 kts 237°
2026-05-07 05:16 41.21039 -104.74271 38079 ft 475 kts 237°
2026-05-07 05:17 41.17112 -104.81358 38068 ft 476 kts 237°
2026-05-07 05:17 41.13177 -104.88439 38082 ft 477 kts 237°
2026-05-07 05:18 41.09240 -104.95511 38078 ft 477 kts 237°
2026-05-07 05:18 41.05288 -105.02593 38094 ft 478 kts 237°
2026-05-07 05:19 41.01354 -105.09625 38098 ft 478 kts 237°
2026-05-07 05:19 40.97390 -105.16693 38109 ft 478 kts 237°
2026-05-07 05:20 40.93418 -105.23762 38108 ft 479 kts 237°
2026-05-07 05:20 40.89440 -105.30824 38117 ft 479 kts 237°
2026-05-07 05:21 40.83457 -105.41418 38125 ft 479 kts 237°
2026-05-07 05:22 40.79487 -105.48427 38139 ft 479 kts 237°
2026-05-07 05:22 40.75493 -105.55462 38152 ft 478 kts 237°
2026-05-07 05:23 40.71504 -105.62472 38170 ft 478 kts 237°
2026-05-07 05:23 40.67497 -105.69494 38186 ft 477 kts 236°
2026-05-07 05:24 40.63503 -105.76482 38203 ft 477 kts 236°
2026-05-07 05:24 40.59503 -105.83466 38228 ft 478 kts 236°
2026-05-07 05:25 40.55498 -105.90443 38245 ft 478 kts 236°
2026-05-07 05:25 40.51513 -105.97368 38257 ft 478 kts 236°
2026-05-07 05:26 40.47591 -106.04427 38260 ft 477 kts 239°
2026-05-07 05:26 40.44638 -106.10540 38263 ft 476 kts 242°
2026-05-07 05:27 40.41181 -106.17958 38262 ft 476 kts 242°
2026-05-07 05:27 40.37674 -106.25330 38257 ft 477 kts 241°
2026-05-07 05:28 40.34103 -106.32675 38261 ft 477 kts 240°
2026-05-07 05:28 40.30509 -106.39999 38258 ft 477 kts 240°
2026-05-07 05:29 40.26917 -106.47304 38254 ft 477 kts 240°
2026-05-07 05:29 40.23351 -106.54548 38252 ft 477 kts 240°
2026-05-07 05:30 40.19749 -106.61848 38255 ft 477 kts 240°
2026-05-07 05:30 40.16143 -106.69140 38247 ft 477 kts 240°
2026-05-07 05:31 40.12532 -106.76427 38254 ft 477 kts 240°
2026-05-07 05:31 40.08912 -106.83713 38248 ft 478 kts 240°
2026-05-07 05:32 40.05285 -106.90999 38247 ft 479 kts 240°
2026-05-07 05:32 40.01651 -106.98277 38257 ft 479 kts 240°
2026-05-07 05:33 39.98023 -107.05527 38255 ft 480 kts 240°
2026-05-07 05:33 39.94367 -107.12821 38252 ft 481 kts 240°
2026-05-07 05:34 39.90702 -107.20115 38252 ft 481 kts 240°
2026-05-07 05:34 39.87023 -107.27421 38247 ft 482 kts 240°
2026-05-07 05:35 39.83341 -107.34718 38243 ft 483 kts 240°
2026-05-07 05:35 39.79640 -107.42029 38239 ft 483 kts 240°
2026-05-07 05:36 39.75929 -107.49339 38242 ft 484 kts 240°
2026-05-07 05:36 39.72238 -107.56597 38240 ft 485 kts 239°
2026-05-07 05:37 39.68516 -107.63895 38253 ft 485 kts 239°
2026-05-07 05:37 39.64781 -107.71209 38256 ft 485 kts 239°
2026-05-07 05:38 39.61041 -107.78517 38272 ft 486 kts 239°
2026-05-07 05:38 39.57299 -107.85813 38257 ft 486 kts 239°
2026-05-07 05:39 39.53545 -107.93113 38249 ft 486 kts 239°
2026-05-07 05:39 39.49786 -108.00406 38232 ft 486 kts 239°
2026-05-07 05:40 39.45811 -108.07542 38215 ft 491 kts 236°
2026-05-07 05:40 39.41612 -108.14603 38189 ft 497 kts 236°
2026-05-07 05:41 39.37423 -108.21664 38193 ft 498 kts 236°
2026-05-07 05:41 39.33244 -108.28793 38203 ft 497 kts 236°
2026-05-07 05:42 39.29075 -108.35927 38205 ft 497 kts 236°
2026-05-07 05:42 39.24908 -108.43047 38220 ft 497 kts 236°
2026-05-07 05:43 39.20728 -108.50168 38227 ft 496 kts 236°
2026-05-07 05:43 39.16578 -108.57222 38231 ft 496 kts 236°
2026-05-07 05:44 39.12395 -108.64311 38229 ft 496 kts 236°
2026-05-07 05:44 39.08214 -108.71383 38211 ft 496 kts 236°
2026-05-07 05:45 39.04028 -108.78445 38198 ft 496 kts 236°
2026-05-07 05:45 38.99840 -108.85500 38175 ft 496 kts 236°
2026-05-07 05:46 38.95647 -108.92547 38157 ft 497 kts 236°
2026-05-07 05:46 38.91443 -108.99595 38149 ft 497 kts 236°
2026-05-07 05:47 38.87257 -109.06597 38143 ft 497 kts 236°
2026-05-07 05:47 38.83018 -109.13672 38145 ft 497 kts 236°
2026-05-07 05:48 38.78827 -109.20650 38146 ft 497 kts 236°
2026-05-07 05:48 38.74591 -109.27692 38141 ft 497 kts 236°
2026-05-07 05:49 38.70359 -109.34712 38146 ft 498 kts 236°
2026-05-07 05:49 38.66126 -109.41719 38156 ft 498 kts 236°
2026-05-07 05:50 38.61874 -109.48739 38157 ft 498 kts 236°
2026-05-07 05:50 38.57630 -109.55732 38160 ft 498 kts 236°
2026-05-07 05:51 38.53379 -109.62721 38162 ft 498 kts 236°
2026-05-07 05:51 38.49144 -109.69665 38142 ft 498 kts 235°
2026-05-07 05:52 38.44880 -109.76645 38140 ft 499 kts 235°
2026-05-07 05:52 38.40605 -109.83632 38121 ft 499 kts 235°
2026-05-07 05:53 38.36322 -109.90612 38115 ft 499 kts 235°
2026-05-07 05:53 38.32033 -109.97585 38116 ft 500 kts 235°
2026-05-07 05:54 38.27959 -110.04735 38110 ft 496 kts 243°
2026-05-07 05:54 38.24606 -110.12384 38109 ft 495 kts 245°
2026-05-07 05:55 38.21395 -110.20155 38103 ft 495 kts 246°
2026-05-07 05:55 38.18204 -110.27919 38102 ft 496 kts 245°
2026-05-07 05:56 38.14983 -110.35674 38104 ft 496 kts 245°
2026-05-07 05:56 38.11758 -110.43377 38113 ft 497 kts 245°
2026-05-07 05:57 38.08508 -110.51124 38090 ft 497 kts 245°
2026-05-07 05:57 38.05249 -110.58875 38100 ft 497 kts 245°
2026-05-07 05:58 38.01985 -110.66618 38094 ft 498 kts 245°
2026-05-07 05:58 37.98713 -110.74360 38090 ft 498 kts 245°
2026-05-07 05:59 37.95437 -110.82093 38085 ft 498 kts 245°
2026-05-07 05:59 37.92155 -110.89823 38079 ft 498 kts 245°
2026-05-07 06:00 37.88879 -110.97514 38073 ft 499 kts 245°
2026-05-07 06:00 37.85581 -111.05239 38074 ft 499 kts 245°
2026-05-07 06:01 37.82280 -111.12955 38070 ft 499 kts 245°
2026-05-07 06:01 37.78971 -111.20674 38071 ft 499 kts 245°
2026-05-07 06:02 37.75653 -111.28391 38068 ft 499 kts 245°
2026-05-07 06:02 37.72353 -111.36047 38063 ft 499 kts 245°
2026-05-07 06:03 37.69025 -111.43752 38064 ft 500 kts 244°
2026-05-07 06:03 37.65684 -111.51469 38063 ft 500 kts 244°
2026-05-07 06:04 37.62344 -111.59163 38062 ft 500 kts 244°
2026-05-07 06:04 37.58996 -111.66860 38068 ft 500 kts 244°
2026-05-07 06:05 37.55638 -111.74554 38074 ft 501 kts 244°
2026-05-07 06:05 37.52274 -111.82253 38108 ft 501 kts 244°
2026-05-07 06:06 37.48625 -111.89647 38122 ft 497 kts 238°
2026-05-07 06:06 37.44606 -111.96655 38135 ft 493 kts 237°
2026-05-07 06:07 37.40520 -112.03590 38113 ft 493 kts 237°
2026-05-07 06:07 37.36442 -112.10511 38097 ft 493 kts 237°
2026-05-07 06:08 37.32368 -112.17453 38079 ft 494 kts 237°
2026-05-07 06:08 37.28288 -112.24400 38066 ft 494 kts 237°
2026-05-07 06:09 37.24203 -112.31339 38084 ft 494 kts 237°
2026-05-07 06:09 37.20129 -112.38245 38079 ft 495 kts 237°
2026-05-07 06:10 37.16034 -112.45173 38077 ft 495 kts 236°
2026-05-07 06:10 37.11933 -112.52099 38075 ft 495 kts 236°
2026-05-07 06:11 37.07821 -112.59031 38074 ft 495 kts 236°
2026-05-07 06:11 37.03712 -112.65947 38107 ft 495 kts 236°
2026-05-07 06:12 37.00291 -112.71695 38139 ft 495 kts 236°
2026-05-07 06:12 36.95493 -112.79742 38180 ft 496 kts 236°
2026-05-07 06:13 36.92064 -112.85481 38206 ft 496 kts 236°
2026-05-07 06:13 36.87933 -112.92381 38216 ft 496 kts 236°
2026-05-07 06:14 36.83798 -112.99276 38210 ft 496 kts 236°
2026-05-07 06:14 36.79650 -113.06180 38181 ft 497 kts 236°
2026-05-07 06:15 36.75491 -113.13086 38144 ft 498 kts 236°
2026-05-07 06:15 36.71327 -113.19985 38107 ft 498 kts 236°
2026-05-07 06:16 36.67152 -113.26890 38061 ft 499 kts 236°
2026-05-07 06:16 36.62969 -113.33795 38055 ft 500 kts 236°
2026-05-07 06:17 36.58889 -113.40734 38046 ft 500 kts 238°
2026-05-07 06:17 36.54907 -113.47826 38036 ft 500 kts 238°
2026-05-07 06:18 36.50923 -113.54935 38030 ft 501 kts 238°
2026-05-07 06:18 36.46905 -113.62021 38016 ft 501 kts 238°
2026-05-07 06:19 36.42867 -113.69094 38003 ft 502 kts 237°
2026-05-07 06:19 36.38843 -113.76118 37996 ft 503 kts 237°
2026-05-07 06:20 36.34787 -113.83186 37983 ft 503 kts 237°
2026-05-07 06:20 36.30717 -113.90268 37974 ft 504 kts 237°
2026-05-07 06:21 36.26641 -113.97343 37962 ft 504 kts 237°
2026-05-07 06:21 36.22559 -114.04418 37949 ft 505 kts 237°
2026-05-07 06:22 36.18496 -114.11447 37942 ft 506 kts 237°
2026-05-07 06:22 36.12335 -114.22073 37932 ft 506 kts 237°
2026-05-07 06:23 36.08122 -114.29069 37931 ft 509 kts 232°
2026-05-07 06:23 36.03482 -114.35700 37927 ft 509 kts 231°
2026-05-07 06:24 35.98782 -114.42188 37928 ft 510 kts 231°
2026-05-07 06:24 35.94035 -114.48704 37948 ft 510 kts 230°
2026-05-07 06:25 35.89303 -114.55216 37965 ft 510 kts 231°
2026-05-07 06:25 35.84572 -114.61729 37984 ft 509 kts 230°
2026-05-07 06:26 35.79839 -114.68236 38004 ft 510 kts 230°
2026-05-07 06:26 35.75103 -114.74735 38018 ft 510 kts 230°
2026-05-07 06:27 35.70358 -114.81231 38023 ft 510 kts 230°
2026-05-07 06:27 35.65611 -114.87721 38025 ft 510 kts 230°
2026-05-07 06:28 35.60868 -114.94212 38028 ft 511 kts 230°
2026-05-07 06:28 35.56110 -115.00710 38038 ft 511 kts 230°
2026-05-07 06:29 35.51375 -115.07164 38041 ft 512 kts 230°
2026-05-07 06:29 35.46540 -115.13604 38050 ft 513 kts 229°
2026-05-07 06:30 35.41632 -115.19970 38061 ft 514 kts 229°
2026-05-07 06:30 35.36718 -115.26351 38070 ft 515 kts 229°
2026-05-07 06:31 35.31805 -115.32735 38075 ft 515 kts 229°
2026-05-07 06:31 35.26875 -115.39135 38074 ft 516 kts 229°
2026-05-07 06:32 35.21974 -115.45488 38076 ft 517 kts 229°
2026-05-07 06:32 35.17026 -115.51890 38074 ft 518 kts 229°
2026-05-07 06:33 35.12068 -115.58294 38071 ft 518 kts 229°
2026-05-07 06:33 35.07090 -115.64677 38059 ft 519 kts 228°
2026-05-07 06:34 35.02088 -115.71056 38048 ft 520 kts 228°
2026-05-07 06:34 34.97086 -115.77430 38046 ft 520 kts 228°
2026-05-07 06:35 34.92082 -115.83800 38033 ft 520 kts 228°
2026-05-07 06:35 34.87108 -115.90119 38026 ft 520 kts 228°
2026-05-07 06:36 34.82090 -115.96483 38021 ft 520 kts 228°
2026-05-07 06:36 34.77084 -116.02820 38018 ft 519 kts 228°
2026-05-07 06:37 34.72095 -116.09177 38018 ft 519 kts 228°
2026-05-07 06:37 34.67107 -116.15527 38014 ft 519 kts 228°
2026-05-07 06:38 34.62150 -116.21823 38035 ft 519 kts 228°
2026-05-07 06:38 34.57167 -116.28141 38049 ft 518 kts 228°
2026-05-07 06:39 34.52177 -116.34458 38059 ft 517 kts 228°
2026-05-07 06:39 34.47224 -116.40714 38060 ft 517 kts 228°
2026-05-07 06:40 34.42347 -116.47134 38052 ft 515 kts 235°
2026-05-07 06:40 34.38810 -116.54508 38038 ft 511 kts 246°
2026-05-07 06:41 34.35661 -116.62231 38030 ft 512 kts 246°
2026-05-07 06:41 34.32506 -116.69962 38033 ft 512 kts 246°
2026-05-07 06:42 34.29399 -116.77723 38044 ft 513 kts 247°
2026-05-07 06:42 34.26278 -116.85496 38055 ft 514 kts 247°
2026-05-07 06:43 34.23143 -116.93266 38077 ft 515 kts 246°
2026-05-07 06:43 34.20307 -117.01135 38102 ft 512 kts 254°
2026-05-07 06:44 34.18093 -117.09311 38122 ft 513 kts 255°
2026-05-07 06:44 34.15898 -117.17507 38126 ft 513 kts 255°
2026-05-07 06:45 34.13656 -117.25691 38124 ft 512 kts 255°
2026-05-07 06:45 34.11410 -117.33834 38126 ft 512 kts 255°
2026-05-07 06:46 34.09215 -117.42030 38112 ft 514 kts 256°
2026-05-07 06:46 34.07201 -117.50286 38109 ft 506 kts 259°
2026-05-07 06:47 34.06569 -117.54374 38109 ft 486 kts 269°
2026-05-07 06:47 34.06566 -117.58368 38115 ft 467 kts 281°
2026-05-07 06:47 34.07214 -117.62101 38120 ft 457 kts 293°
2026-05-07 06:47 34.08440 -117.65594 38118 ft 450 kts 303°
2026-05-07 06:48 34.12232 -117.71432 38118 ft 438 kts 322°
2026-05-07 06:48 34.17292 -117.75298 38116 ft 427 kts 341°
2026-05-07 06:49 34.23014 -117.76837 38116 ft 420 kts 360°
2026-05-07 06:49 34.28756 -117.76012 38109 ft 416 kts 17°
2026-05-07 06:50 34.33938 -117.72997 38097 ft 415 kts 35°
2026-05-07 06:50 34.37926 -117.68058 38096 ft 420 kts 53°
2026-05-07 06:51 34.40463 -117.61702 38100 ft 427 kts 68°
2026-05-07 06:51 34.42229 -117.54824 38125 ft 427 kts 69°
2026-05-07 06:52 34.43953 -117.47936 38121 ft 428 kts 70°
2026-05-07 06:52 34.44773 -117.40758 38135 ft 437 kts 88°
2026-05-07 06:53 34.43488 -117.33505 38129 ft 449 kts 108°
2026-05-07 06:53 34.40050 -117.27109 38114 ft 462 kts 129°
2026-05-07 06:54 34.37620 -117.24518 38107 ft 469 kts 140°
2026-05-07 06:54 34.34801 -117.22501 38092 ft 475 kts 152°
2026-05-07 06:54 34.31681 -117.21156 38102 ft 480 kts 163°
2026-05-07 06:54 34.28367 -117.20555 38107 ft 484 kts 175°
2026-05-07 06:55 34.24998 -117.20742 38114 ft 487 kts 187°
2026-05-07 06:55 34.21701 -117.21721 38126 ft 489 kts 199°
2026-05-07 06:55 34.18620 -117.23455 38126 ft 489 kts 211°
2026-05-07 06:55 34.15875 -117.25893 38130 ft 489 kts 224°
2026-05-07 06:56 34.13619 -117.28863 38128 ft 486 kts 236°
2026-05-07 06:56 34.11865 -117.32332 38129 ft 482 kts 248°
2026-05-07 06:56 34.09705 -117.39936 38123 ft 479 kts 257°
2026-05-07 06:57 34.07815 -117.47647 38114 ft 479 kts 256°
2026-05-07 06:57 34.06558 -117.55456 38115 ft 470 kts 273°
2026-05-07 06:58 34.06771 -117.59351 38118 ft 463 kts 284°
2026-05-07 06:58 34.07578 -117.63080 38125 ft 455 kts 295°
2026-05-07 06:58 34.08920 -117.66512 38114 ft 448 kts 306°
2026-05-07 06:58 34.10720 -117.69545 38118 ft 441 kts 315°
2026-05-07 06:59 34.15385 -117.74148 38120 ft 430 kts 335°
2026-05-07 06:59 34.20903 -117.76505 38110 ft 421 kts 353°
2026-05-07 07:00 34.26699 -117.76513 38112 ft 416 kts 11°
2026-05-07 07:00 34.32134 -117.74240 38094 ft 415 kts 28°
2026-05-07 07:01 34.36637 -117.69896 38097 ft 417 kts 47°
2026-05-07 07:01 34.39294 -117.64995 38086 ft 423 kts 62°
2026-05-07 07:02 34.41228 -117.58234 38072 ft 426 kts 70°
2026-05-07 07:02 34.42852 -117.51320 38096 ft 427 kts 70°
2026-05-07 07:03 34.44390 -117.44363 38117 ft 429 kts 77°
2026-05-07 07:03 34.44565 -117.40757 37649 ft 433 kts 90°
2026-05-07 07:03 34.43977 -117.37153 37138 ft 439 kts 103°
2026-05-07 07:04 34.42805 -117.33774 36641 ft 444 kts 114°
2026-05-07 07:04 34.41104 -117.30627 36160 ft 448 kts 124°
2026-05-07 07:04 34.38954 -117.27883 35718 ft 451 kts 135°
2026-05-07 07:04 34.36421 -117.25637 35280 ft 454 kts 146°
2026-05-07 07:05 34.33584 -117.23956 34841 ft 455 kts 156°
2026-05-07 07:05 34.30540 -117.22882 34446 ft 456 kts 166°
2026-05-07 07:05 34.27396 -117.22447 34035 ft 456 kts 177°
2026-05-07 07:05 34.24233 -117.22685 33582 ft 454 kts 188°
2026-05-07 07:06 34.21174 -117.23571 33150 ft 451 kts 199°
2026-05-07 07:06 34.18313 -117.25093 32705 ft 448 kts 210°
2026-05-07 07:06 34.15754 -117.27195 32352 ft 441 kts 221°
2026-05-07 07:06 34.13619 -117.29732 32132 ft 431 kts 232°
2026-05-07 07:07 34.11912 -117.32641 31902 ft 419 kts 243°
2026-05-07 07:07 34.10686 -117.35776 31632 ft 409 kts 253°
2026-05-07 07:07 34.09843 -117.39032 31302 ft 403 kts 257°
2026-05-07 07:07 34.09087 -117.42272 30934 ft 400 kts 257°
2026-05-07 07:08 34.08330 -117.45488 30586 ft 398 kts 257°
2026-05-07 07:08 34.07563 -117.48682 30251 ft 395 kts 257°
2026-05-07 07:08 34.06939 -117.51882 29825 ft 389 kts 265°
2026-05-07 07:08 34.06834 -117.55110 29395 ft 381 kts 279°
2026-05-07 07:09 34.07361 -117.58186 28976 ft 371 kts 294°
2026-05-07 07:09 34.08502 -117.60926 28567 ft 361 kts 309°
2026-05-07 07:09 34.10164 -117.63136 28166 ft 352 kts 324°
2026-05-07 07:09 34.12213 -117.64659 27756 ft 343 kts 340°
2026-05-07 07:10 34.14488 -117.65412 27359 ft 337 kts 355°
2026-05-07 07:10 34.16803 -117.65368 26952 ft 332 kts 11°
2026-05-07 07:10 34.18993 -117.64529 26561 ft 330 kts 25°
2026-05-07 07:10 34.20904 -117.63036 26154 ft 328 kts 40°
2026-05-07 07:11 34.22410 -117.60961 25775 ft 329 kts 54°
2026-05-07 07:11 34.23433 -117.58499 25388 ft 330 kts 69°
2026-05-07 07:11 34.23924 -117.55779 25063 ft 332 kts 78°
2026-05-07 07:11 34.24206 -117.53049 24755 ft 330 kts 79°
2026-05-07 07:12 34.24476 -117.50304 24434 ft 328 kts 79°
2026-05-07 07:12 34.24753 -117.47567 24100 ft 327 kts 79°
2026-05-07 07:12 34.25035 -117.44848 23781 ft 325 kts 80°
2026-05-07 07:12 34.25063 -117.42106 23365 ft 329 kts 92°
2026-05-07 07:13 34.24506 -117.39412 22939 ft 333 kts 108°
2026-05-07 07:13 34.23341 -117.36985 22529 ft 338 kts 124°
2026-05-07 07:13 34.21617 -117.35030 22151 ft 342 kts 141°
2026-05-07 07:13 34.19480 -117.33740 21775 ft 346 kts 159°
2026-05-07 07:14 34.17098 -117.33240 21396 ft 349 kts 176°
2026-05-07 07:14 34.14692 -117.33616 21021 ft 350 kts 195°
2026-05-07 07:14 34.12501 -117.34873 20639 ft 349 kts 215°
2026-05-07 07:14 34.10783 -117.36911 20271 ft 345 kts 237°
2026-05-07 07:15 34.09769 -117.39436 20134 ft 334 kts 254°
2026-05-07 07:15 34.09109 -117.42111 20110 ft 333 kts 256°
2026-05-07 07:15 34.08480 -117.44809 20111 ft 334 kts 256°
2026-05-07 07:15 34.07835 -117.47507 20114 ft 334 kts 256°
2026-05-07 07:16 34.07222 -117.50204 20113 ft 332 kts 261°
2026-05-07 07:16 34.07153 -117.52953 20117 ft 325 kts 284°
2026-05-07 07:16 34.07952 -117.55433 20118 ft 315 kts 308°
2026-05-07 07:16 34.09454 -117.57270 20118 ft 305 kts 330°
2026-05-07 07:17 34.11380 -117.58257 20118 ft 298 kts 351°
2026-05-07 07:17 34.13423 -117.58323 20121 ft 294 kts 12°
2026-05-07 07:17 34.15326 -117.57503 20117 ft 291 kts 31°
2026-05-07 07:17 34.16857 -117.55912 20117 ft 292 kts 51°
2026-05-07 07:18 34.17837 -117.53757 20116 ft 295 kts 67°
2026-05-07 07:18 34.18470 -117.51426 20110 ft 296 kts 70°
2026-05-07 07:18 34.19061 -117.49041 20107 ft 296 kts 71°
2026-05-07 07:18 34.19653 -117.46660 20107 ft 297 kts 71°
2026-05-07 07:19 34.20244 -117.44271 20102 ft 296 kts 71°
2026-05-07 07:19 34.20613 -117.41813 20107 ft 300 kts 85°
2026-05-07 07:19 34.20296 -117.39310 20113 ft 307 kts 107°
2026-05-07 07:19 34.19161 -117.37100 20118 ft 316 kts 130°
2026-05-07 07:20 34.17348 -117.35572 20123 ft 325 kts 153°
2026-05-07 07:20 34.15127 -117.35009 20124 ft 332 kts 178°
2026-05-07 07:20 34.12866 -117.35574 20128 ft 336 kts 203°
2026-05-07 07:20 34.10977 -117.37209 20122 ft 337 kts 229°
2026-05-07 07:21 34.09794 -117.39616 20127 ft 333 kts 251°
2026-05-07 07:21 34.09082 -117.42279 20115 ft 333 kts 256°
2026-05-07 07:21 34.08443 -117.44966 20112 ft 334 kts 256°
2026-05-07 07:21 34.07797 -117.47657 20116 ft 334 kts 256°
2026-05-07 07:22 34.07198 -117.50360 20115 ft 332 kts 263°
2026-05-07 07:22 34.07178 -117.53103 20115 ft 324 kts 285°
2026-05-07 07:22 34.08009 -117.55528 20119 ft 314 kts 309°
2026-05-07 07:22 34.09537 -117.57331 20120 ft 305 kts 331°
2026-05-07 07:23 34.11465 -117.58278 20120 ft 298 kts 352°
2026-05-07 07:23 34.13512 -117.58303 20119 ft 293 kts 12°
2026-05-07 07:23 34.15406 -117.57445 20118 ft 291 kts 32°
2026-05-07 07:23 34.16913 -117.55822 20108 ft 292 kts 51°
2026-05-07 07:24 34.17865 -117.53655 20117 ft 295 kts 67°
2026-05-07 07:24 34.18501 -117.51285 20111 ft 296 kts 70°
2026-05-07 07:24 34.19093 -117.48903 20108 ft 296 kts 70°
2026-05-07 07:24 34.19689 -117.46517 20110 ft 297 kts 70°
2026-05-07 07:25 34.20624 -117.41671 20106 ft 300 kts 86°
2026-05-07 07:25 34.20254 -117.39173 20113 ft 307 kts 108°
2026-05-07 07:25 34.19074 -117.36988 20113 ft 316 kts 131°
2026-05-07 07:26 34.17226 -117.35507 20123 ft 325 kts 155°
2026-05-07 07:26 34.15018 -117.35007 20124 ft 332 kts 179°
2026-05-07 07:26 34.12736 -117.35643 20125 ft 336 kts 205°
2026-05-07 07:26 34.10900 -117.37313 20124 ft 337 kts 230°
2026-05-07 07:27 34.09757 -117.39735 20128 ft 333 kts 252°
2026-05-07 07:27 34.09051 -117.42401 20114 ft 333 kts 256°
2026-05-07 07:27 34.08412 -117.45090 20114 ft 334 kts 256°
2026-05-07 07:27 34.07767 -117.47775 20115 ft 334 kts 256°
2026-05-07 07:28 34.07180 -117.50475 20114 ft 332 kts 263°
2026-05-07 07:28 34.07196 -117.53212 20117 ft 324 kts 286°
2026-05-07 07:28 34.08076 -117.55648 20117 ft 314 kts 310°
2026-05-07 07:28 34.09636 -117.57409 20118 ft 305 kts 333°
2026-05-07 07:29 34.11578 -117.58306 20118 ft 298 kts 353°
2026-05-07 07:29 34.13625 -117.58279 20120 ft 293 kts 13°
2026-05-07 07:29 34.15504 -117.57372 20109 ft 291 kts 33°
2026-05-07 07:29 34.16984 -117.55712 20105 ft 292 kts 52°
2026-05-07 07:30 34.17909 -117.53520 20115 ft 295 kts 68°
2026-05-07 07:30 34.18537 -117.51148 20111 ft 296 kts 70°
2026-05-07 07:30 34.19132 -117.48766 20107 ft 296 kts 70°
2026-05-07 07:30 34.19724 -117.46380 20108 ft 297 kts 71°
2026-05-07 07:31 34.20306 -117.44022 20106 ft 297 kts 72°
2026-05-07 07:31 34.20619 -117.41549 20107 ft 301 kts 87°
2026-05-07 07:31 34.20208 -117.39059 20113 ft 308 kts 109°
2026-05-07 07:31 34.18996 -117.36904 20116 ft 317 kts 132°
2026-05-07 07:32 34.17122 -117.35458 20123 ft 326 kts 156°
2026-05-07 07:32 34.14875 -117.35011 20124 ft 333 kts 180°
2026-05-07 07:32 34.12633 -117.35701 20124 ft 337 kts 206°
2026-05-07 07:32 34.10807 -117.37443 20124 ft 336 kts 232°
2026-05-07 07:33 34.09705 -117.39901 20126 ft 333 kts 252°
2026-05-07 07:33 34.09010 -117.42570 20113 ft 333 kts 256°
2026-05-07 07:33 34.08372 -117.45258 20110 ft 334 kts 256°
2026-05-07 07:33 34.07726 -117.47946 20115 ft 334 kts 256°
2026-05-07 07:34 34.07157 -117.50649 20113 ft 331 kts 264°
2026-05-07 07:34 34.07227 -117.53375 20117 ft 323 kts 288°
2026-05-07 07:34 34.08156 -117.55778 20118 ft 313 kts 311°
2026-05-07 07:34 34.09748 -117.57491 20120 ft 304 kts 334°
2026-05-07 07:35 34.11705 -117.58333 20119 ft 297 kts 355°
2026-05-07 07:35 34.13744 -117.58251 20119 ft 293 kts 14°
2026-05-07 07:35 34.15604 -117.57296 20108 ft 291 kts 34°
2026-05-07 07:35 34.17054 -117.55599 20107 ft 293 kts 53°
2026-05-07 07:36 34.17937 -117.53418 20114 ft 295 kts 68°
2026-05-07 07:36 34.18567 -117.51019 20110 ft 296 kts 70°
2026-05-07 07:36 34.19157 -117.48667 20107 ft 296 kts 70°
2026-05-07 07:36 34.19750 -117.46277 20109 ft 297 kts 70°
2026-05-07 07:37 34.20340 -117.43886 20105 ft 297 kts 72°
2026-05-07 07:37 34.20621 -117.41405 20105 ft 301 kts 89°
2026-05-07 07:37 34.20163 -117.38924 20112 ft 308 kts 110°
2026-05-07 07:37 34.18906 -117.36803 20118 ft 317 kts 133°
2026-05-07 07:38 34.17003 -117.35405 20120 ft 326 kts 157°
2026-05-07 07:38 34.14736 -117.35020 20126 ft 333 kts 182°
2026-05-07 07:38 34.12536 -117.35761 20127 ft 337 kts 207°
2026-05-07 07:38 34.10739 -117.37543 20123 ft 336 kts 233°
2026-05-07 07:39 34.09671 -117.40017 20125 ft 333 kts 253°
2026-05-07 07:39 34.08983 -117.42691 20113 ft 333 kts 256°
2026-05-07 07:39 34.08345 -117.45377 20112 ft 333 kts 256°
2026-05-07 07:39 34.07697 -117.48070 20115 ft 334 kts 256°
2026-05-07 07:40 34.07142 -117.50775 20113 ft 331 kts 265°
2026-05-07 07:40 34.07252 -117.53504 20117 ft 323 kts 289°
2026-05-07 07:40 34.08220 -117.55879 20119 ft 312 kts 313°
2026-05-07 07:40 34.09834 -117.57552 20119 ft 304 kts 335°
2026-05-07 07:41 34.11802 -117.58348 20119 ft 297 kts 355°
2026-05-07 07:41 34.13841 -117.58224 20119 ft 293 kts 15°
2026-05-07 07:41 34.15689 -117.57229 20108 ft 292 kts 35°
2026-05-07 07:41 34.17116 -117.55500 20107 ft 293 kts 54°
2026-05-07 07:42 34.17984 -117.53273 20113 ft 295 kts 68°
2026-05-07 07:42 34.18602 -117.50898 20111 ft 296 kts 70°
2026-05-07 07:42 34.19198 -117.48518 20107 ft 297 kts 70°
2026-05-07 07:42 34.19789 -117.46129 20106 ft 297 kts 71°
2026-05-07 07:43 34.20364 -117.43769 20104 ft 297 kts 72°
2026-05-07 07:43 34.20615 -117.41288 20107 ft 301 kts 89°
2026-05-07 07:43 34.20122 -117.38809 20113 ft 309 kts 111°
2026-05-07 07:43 34.18831 -117.36716 20119 ft 318 kts 135°
2026-05-07 07:44 34.16898 -117.35361 20121 ft 326 kts 158°
2026-05-07 07:44 34.14635 -117.35030 20123 ft 333 kts 183°
2026-05-07 07:44 34.12420 -117.35834 20123 ft 337 kts 209°
2026-05-07 07:44 34.10656 -117.37671 20123 ft 336 kts 235°
2026-05-07 07:45 34.09628 -117.40167 20124 ft 333 kts 253°
2026-05-07 07:45 34.08948 -117.42842 20112 ft 333 kts 256°
2026-05-07 07:45 34.08308 -117.45538 20112 ft 334 kts 256°
2026-05-07 07:45 34.07881 -117.47315 20114 ft 334 kts 256°
2026-05-07 07:46 34.07256 -117.50013 20113 ft 332 kts 261°
2026-05-07 07:46 34.07131 -117.52757 20113 ft 325 kts 282°
2026-05-07 07:46 34.07869 -117.55270 20119 ft 315 kts 306°
2026-05-07 07:46 34.09333 -117.57167 20118 ft 306 kts 329°
2026-05-07 07:47 34.11233 -117.58219 20118 ft 299 kts 350°
2026-05-07 07:47 34.13280 -117.58352 20118 ft 294 kts 10°
2026-05-07 07:47 34.15204 -117.57591 20107 ft 292 kts 30°
2026-05-07 07:47 34.16770 -117.56047 20107 ft 292 kts 49°
2026-05-07 07:48 34.17785 -117.53923 20115 ft 295 kts 66°
2026-05-07 07:48 34.18429 -117.51595 20110 ft 296 kts 70°
2026-05-07 07:48 34.19032 -117.49182 20106 ft 297 kts 70°
2026-05-07 07:48 34.19615 -117.46825 20108 ft 297 kts 71°
2026-05-07 07:49 34.20212 -117.44435 20099 ft 297 kts 71°
2026-05-07 07:49 34.20611 -117.41985 20098 ft 300 kts 84°
2026-05-07 07:49 34.20344 -117.39477 20102 ft 306 kts 105°
2026-05-07 07:49 34.19267 -117.37238 20105 ft 315 kts 128°
2026-05-07 07:50 34.17488 -117.35648 20112 ft 324 kts 152°
2026-05-07 07:50 34.15278 -117.35009 20118 ft 332 kts 176°
2026-05-07 07:50 34.13028 -117.35488 20114 ft 336 kts 201°
2026-05-07 07:50 34.11075 -117.37079 20112 ft 337 kts 227°
2026-05-07 07:51 34.09860 -117.39416 20118 ft 333 kts 250°
2026-05-07 07:51 34.09137 -117.42065 20114 ft 333 kts 256°
2026-05-07 07:51 34.08496 -117.44752 20113 ft 333 kts 256°
2026-05-07 07:51 34.07851 -117.47439 20112 ft 334 kts 256°
2026-05-07 07:52 34.07234 -117.50132 20113 ft 332 kts 261°
2026-05-07 07:52 34.07144 -117.52882 20114 ft 325 kts 283°
2026-05-07 07:52 34.07922 -117.55377 20118 ft 315 kts 307°
2026-05-07 07:52 34.09409 -117.57248 20029 ft 307 kts 329°
2026-05-07 07:53 34.11317 -117.58277 19682 ft 299 kts 351°
2026-05-07 07:53 34.13374 -117.58316 19238 ft 296 kts 13°
2026-05-07 07:53 34.15291 -117.57452 18807 ft 294 kts 32°
2026-05-07 07:53 34.16799 -117.55859 18430 ft 293 kts 52°
2026-05-07 07:54 34.17735 -117.53682 18011 ft 294 kts 69°
2026-05-07 07:54 34.18310 -117.51313 17638 ft 292 kts 73°
2026-05-07 07:54 34.18803 -117.48940 17249 ft 291 kts 74°
2026-05-07 07:54 34.19271 -117.46572 16882 ft 289 kts 74°
2026-05-07 07:55 34.19736 -117.44215 16537 ft 287 kts 76°
2026-05-07 07:55 34.19925 -117.41824 16168 ft 288 kts 91°
2026-05-07 07:55 34.19448 -117.39470 15820 ft 292 kts 111°
2026-05-07 07:55 34.18269 -117.37509 15470 ft 297 kts 134°
2026-05-07 07:56 34.16499 -117.36206 15127 ft 303 kts 156°
2026-05-07 07:56 34.14406 -117.35821 14789 ft 308 kts 179°
2026-05-07 07:56 34.12328 -117.36455 14443 ft 313 kts 204°
2026-05-07 07:56 34.10605 -117.38052 14084 ft 315 kts 229°
2026-05-07 07:57 34.09550 -117.40342 13721 ft 313 kts 251°
2026-05-07 07:57 34.08922 -117.42830 13494 ft 307 kts 255°
2026-05-07 07:57 34.08349 -117.45302 13357 ft 305 kts 255°
2026-05-07 07:57 34.07767 -117.47757 13229 ft 304 kts 254°
2026-05-07 07:58 34.07163 -117.50207 13056 ft 304 kts 253°
2026-05-07 07:58 34.06539 -117.52636 12803 ft 302 kts 253°
2026-05-07 07:58 34.05913 -117.55023 12549 ft 301 kts 252°
2026-05-07 07:58 34.05275 -117.57424 12291 ft 300 kts 252°
2026-05-07 07:59 34.04635 -117.59817 12036 ft 299 kts 252°
2026-05-07 07:59 34.04001 -117.62190 11797 ft 298 kts 252°
2026-05-07 07:59 34.03363 -117.64575 11551 ft 297 kts 252°
2026-05-07 07:59 34.02730 -117.66944 11309 ft 296 kts 252°
2026-05-07 08:00 34.02125 -117.69317 11071 ft 295 kts 257°
2026-05-07 08:00 34.01775 -117.71740 10834 ft 293 kts 263°
2026-05-07 08:00 34.01534 -117.74180 10596 ft 292 kts 264°
2026-05-07 08:00 34.01310 -117.76576 10365 ft 291 kts 264°
2026-05-07 08:01 34.01083 -117.78996 10158 ft 290 kts 264°
2026-05-07 08:01 34.00854 -117.81408 10105 ft 290 kts 264°
2026-05-07 08:01 34.00620 -117.83824 10100 ft 290 kts 264°
2026-05-07 08:01 34.00385 -117.86249 10096 ft 290 kts 264°
2026-05-07 08:02 34.00148 -117.88665 10097 ft 290 kts 264°
2026-05-07 08:02 33.99912 -117.91079 10095 ft 290 kts 264°
2026-05-07 08:02 33.99679 -117.93494 10097 ft 290 kts 264°
2026-05-07 08:02 33.99442 -117.95905 10098 ft 290 kts 264°
2026-05-07 08:03 33.99203 -117.98316 10098 ft 290 kts 264°
2026-05-07 08:03 33.98968 -118.00697 10102 ft 290 kts 264°
2026-05-07 08:03 33.98727 -118.03111 10099 ft 290 kts 264°
2026-05-07 08:03 33.98493 -118.05453 10098 ft 290 kts 264°
2026-05-07 08:04 33.98246 -118.07891 10100 ft 290 kts 264°
2026-05-07 08:04 33.98005 -118.10303 10095 ft 290 kts 264°
2026-05-07 08:04 33.97764 -118.12721 10097 ft 290 kts 264°
2026-05-07 08:04 33.97523 -118.15134 10093 ft 290 kts 264°
2026-05-07 08:05 33.97281 -118.17545 10108 ft 290 kts 264°
2026-05-07 08:05 33.97039 -118.19953 9881 ft 288 kts 264°
2026-05-07 08:05 33.96797 -118.22354 9458 ft 289 kts 264°
2026-05-07 08:05 33.96555 -118.24749 9109 ft 286 kts 264°
2026-05-07 08:06 33.96323 -118.27093 8519 ft 279 kts 265°
2026-05-07 08:06 33.96407 -118.29392 7860 ft 273 kts 286°
2026-05-07 08:06 33.97265 -118.31371 7288 ft 261 kts 315°
2026-05-07 08:06 33.98725 -118.32470 7151 ft 254 kts 346°
2026-05-07 08:07 34.00466 -118.32630 6842 ft 249 kts
2026-05-07 08:07 34.02048 -118.31831 6151 ft 251 kts 37°
2026-05-07 08:07 34.03131 -118.30195 5451 ft 254 kts 63°
2026-05-07 08:07 34.03576 -118.28130 4794 ft 255 kts 81°
2026-05-07 08:08 34.03745 -118.26006 4176 ft 253 kts 84°
2026-05-07 08:08 34.03878 -118.23912 3589 ft 249 kts 85°
2026-05-07 08:08 34.03989 -118.21843 3015 ft 245 kts 86°
2026-05-07 08:08 34.04074 -118.19808 2471 ft 239 kts 91°
2026-05-07 08:09 34.03614 -118.17919 2461 ft 238 kts 122°
2026-05-07 08:09 34.02422 -118.16676 2390 ft 227 kts 158°
2026-05-07 08:09 34.00899 -118.16480 2355 ft 219 kts 186°
2026-05-07 08:09 33.99452 -118.16989 2354 ft 221 kts 205°
2026-05-07 08:10 33.98127 -118.18018 2424 ft 232 kts 222°
2026-05-07 08:10 33.97265 -118.19556 2503 ft 216 kts 251°
2026-05-07 08:10 33.96977 -118.21307 2494 ft 212 kts 262°
2026-05-07 08:10 33.96779 -118.23062 2354 ft 213 kts 261°
2026-05-07 08:11 33.96559 -118.24831 2332 ft 212 kts 262°
2026-05-07 08:11 33.96397 -118.26600 2298 ft 211 kts 263°
2026-05-07 08:11 33.96232 -118.28313 2132 ft 203 kts 262°
2026-05-07 08:11 33.96067 -118.29997 1797 ft 201 kts 262°
2026-05-07 08:12 33.95904 -118.31622 1480 ft 190 kts 263°
2026-05-07 08:12 33.95756 -118.33144 1227 ft 175 kts 263°
2026-05-07 08:12 33.95600 -118.34522 1023 ft 162 kts 261°
2026-05-07 08:12 33.95435 -118.35857 822 ft 160 kts 261°
2026-05-07 08:13 33.95317 -118.37183 591 ft 162 kts 264°
2026-05-07 08:13 33.95191 -118.38550 454 ft 162 kts 260°
2026-05-07 08:13 33.95053 -118.39854 215 ft 151 kts 263°
2026-05-07 08:13 33.94934 -118.41051 120 ft 134 kts 258°
2026-05-07 08:14 33.94833 -118.41988 113 ft 81 kts 263°
2026-05-07 08:14 33.94796 -118.42346 112 ft 23 kts 263°
2026-05-07 08:14 33.94762 -118.42474 112 ft 11 kts 217°
2026-05-07 08:14 33.94659 -118.42473 105 ft 23 kts 173°
2026-05-07 08:15 33.94589 -118.42416 105 ft 11 kts 98°
2026-05-07 08:15 33.94602 -118.42268 102 ft 23 kts 83°
2026-05-07 08:15 33.94620 -118.42073 102 ft 24 kts 83°
2026-05-07 08:15 33.94634 -118.41861 102 ft 27 kts 85°
2026-05-07 08:16 33.94652 -118.41631 102 ft 28 kts 82°
2026-05-07 08:16 33.94683 -118.41377 103 ft 33 kts 82°
2026-05-07 08:16 33.94730 -118.41106 105 ft 32 kts 79°
2026-05-07 08:16 33.94742 -118.40936 103 ft 13 kts 85°
2026-05-07 08:17 33.94723 -118.40863 103 ft 9 kts 134°
2026-05-07 08:17 33.94697 -118.40833 102 ft 0 kts 136°
2026-05-07 08:17 33.94693 -118.40829 102 ft 0 kts 137°
2026-05-07 08:17 33.94692 -118.40828 102 ft 0 kts 137°